Weather History for KCOE - March, 2014

Change the Weather History Date:

Friday, March 28, 2014

  Actual Average Record
Temperature  
Mean Temperature 42 °F -  
Max Temperature 48 °F 48 °F 59 °F (2013)
Min Temperature 35 °F 30 °F 21 °F (2008)
Degree Days  
Heating Degree Days 24    
Moisture  
Dew Point 36 °F    
Average Humidity 79    
Maximum Humidity 87    
Minimum Humidity 62    
Precipitation  
Precipitation 0.22 in - - ()
Sea Level Pressure  
Sea Level Pressure 29.86 in    
Wind  
Wind Speed 10 mph (South)    
Max Wind Speed 16 mph    
Max Gust Speed 20 mph    
Visibility 10 miles    
Events      
Averages and records for this station are not official NWS values.
T = Trace of Precipitation, MM = Missing Value Source: NWS Daily Summary

Daily Weather History Graph

Daily Weather History Graph

Search for Another Location

Airport or City:

Trip Planner

Search our weather history database for the weather conditions in past years. The results will help you decide how hot, cold, wet, or windy it might be!

Date:

Astronomy

Mar. 28, 2014 Rise Set
Actual Time 6:33 AM PDT 7:11 PM PDT
Civil Twilight 6:02 AM PDT 7:42 PM PDT
Nautical Twilight 5:25 AM PDT 8:19 PM PDT
Astronomical Twilight 4:47 AM PDT 8:58 PM PDT
Moon 5:16 AM PDT (3/28) 5:06 PM PDT (3/28)
Length of Visible Light 13h 40m
Length of Day
12h 38m
Waning Crescent, 5% of the Moon is Illuminated
Mar 28
Waning Crescent
Mar 30
New
Apr 7
First Quarter
Apr 15
Full
Apr 22
Last Quarter

Hourly Weather History & Observations

Time (PDT) Temp. Windchill Dew Point Humidity Pressure Visibility Wind Dir Wind Speed Gust Speed Precip Events Conditions
12:15 AM 39.2 °F 32.5 °F 33.8 °F 81% 29.85 in 9.0 mi SSE 10.4 mph 18.4 mph 0.05 in   Overcast
12:35 AM 39.2 °F 31.6 °F 35.6 °F 87% 29.85 in 10.0 mi SSE 12.7 mph - 0.05 in   Mostly Cloudy
12:55 AM 39.2 °F 32.5 °F 35.6 °F 87% 29.86 in 10.0 mi SSE 10.4 mph - 0.05 in   Overcast
1:15 AM 39.2 °F 33.0 °F 33.8 °F 81% 29.87 in 10.0 mi SSE 9.2 mph - N/A   Mostly Cloudy
1:35 AM 39.2 °F 33.6 °F 35.6 °F 87% 29.87 in 10.0 mi South 8.1 mph - N/A   Mostly Cloudy
1:55 AM 37.4 °F 30.8 °F 33.8 °F 87% 29.87 in 10.0 mi South 9.2 mph - N/A   Mostly Cloudy
2:15 AM 37.4 °F 31.4 °F 33.8 °F 87% 29.88 in 10.0 mi South 8.1 mph - N/A   Overcast
2:35 AM 39.2 °F 32.5 °F 33.8 °F 81% 29.88 in 10.0 mi South 10.4 mph - N/A   Overcast
2:55 AM 39.2 °F 32.5 °F 33.8 °F 81% 29.88 in 10.0 mi South 10.4 mph - N/A   Mostly Cloudy
3:15 AM 37.4 °F 32.1 °F 33.8 °F 87% 29.89 in 10.0 mi South 6.9 mph - N/A   Mostly Cloudy
3:35 AM 37.4 °F 32.1 °F 33.8 °F 87% 29.89 in 10.0 mi SSE 6.9 mph - N/A   Overcast
3:55 AM 39.2 °F 35.0 °F 33.8 °F 81% 29.89 in 10.0 mi South 5.8 mph - N/A   Overcast
4:15 AM 39.2 °F 34.2 °F 33.8 °F 81% 29.90 in 10.0 mi South 6.9 mph - N/A   Overcast
4:35 AM 39.2 °F 35.0 °F 33.8 °F 81% 29.91 in 10.0 mi SSE 5.8 mph - N/A   Overcast
4:55 AM 37.4 °F 33.8 °F 32.0 °F 81% 29.91 in 10.0 mi South 4.6 mph - N/A   Overcast
5:15 AM 35.6 °F - 30.2 °F 81% 29.91 in 10.0 mi Calm Calm - N/A   Mostly Cloudy
5:35 AM 35.6 °F - 32.0 °F 87% 29.92 in 10.0 mi Calm Calm - N/A   Overcast
5:55 AM 37.4 °F 34.9 °F 32.0 °F 81% 29.92 in 10.0 mi SSW 3.5 mph - N/A   Overcast
6:15 AM 37.4 °F 31.4 °F 32.0 °F 81% 29.92 in 10.0 mi South 8.1 mph - N/A   Overcast
6:35 AM 37.4 °F 29.8 °F 33.8 °F 87% 29.92 in 10.0 mi South 11.5 mph - N/A   Mostly Cloudy
6:55 AM 37.4 °F 29.8 °F 32.0 °F 81% 29.92 in 10.0 mi South 11.5 mph - N/A   Partly Cloudy
7:15 AM 37.4 °F 31.4 °F 32.0 °F 81% 29.92 in 10.0 mi SSE 8.1 mph - N/A   Clear
7:35 AM 39.2 °F 33.0 °F 33.8 °F 81% 29.92 in 10.0 mi South 9.2 mph - N/A   Clear
7:55 AM 39.2 °F 35.0 °F 33.8 °F 81% 29.92 in 10.0 mi SSE 5.8 mph - N/A   Scattered Clouds
8:15 AM 39.2 °F 33.0 °F 33.8 °F 81% 29.92 in 10.0 mi South 9.2 mph - N/A   Mostly Cloudy
8:35 AM 39.2 °F 34.2 °F 33.8 °F 81% 29.92 in 10.0 mi South 6.9 mph - N/A   Scattered Clouds
8:55 AM 42.8 °F 36.6 °F 33.8 °F 70% 29.92 in 10.0 mi SSE 11.5 mph - N/A   Clear
9:15 AM 42.8 °F 37.0 °F 33.8 °F 70% 29.91 in 10.0 mi South 10.4 mph - N/A   Clear
9:35 AM 42.8 °F 36.2 °F 33.8 °F 70% 29.91 in 10.0 mi South 12.7 mph - N/A   Clear
9:55 AM 44.6 °F 38.4 °F 35.6 °F 71% 29.91 in 10.0 mi South 12.7 mph - N/A   Partly Cloudy
10:15 AM 44.6 °F 39.7 °F 33.8 °F 66% 29.91 in 10.0 mi South 9.2 mph - N/A   Mostly Cloudy
10:35 AM 44.6 °F 37.8 °F 35.6 °F 71% 29.90 in 10.0 mi South 15.0 mph - N/A   Overcast
10:55 AM 46.4 °F 41.9 °F 35.6 °F 66% 29.90 in 10.0 mi South 9.2 mph - N/A   Overcast
11:15 AM 46.4 °F 41.1 °F 35.6 °F 66% 29.90 in 10.0 mi South 11.5 mph 17.3 mph N/A   Overcast
11:35 AM 46.4 °F 41.1 °F 35.6 °F 66% 29.89 in 10.0 mi SSE 11.5 mph - N/A   Overcast
11:55 AM 46.4 °F 40.7 °F 35.6 °F 66% 29.88 in 10.0 mi South 12.7 mph - N/A   Overcast
12:15 PM 48.2 °F - 35.6 °F 62% 29.87 in 10.0 mi South 13.8 mph - N/A   Overcast
12:35 PM 48.2 °F - 35.6 °F 62% 29.87 in 10.0 mi South 11.5 mph - N/A   Overcast
12:55 PM 48.2 °F - 35.6 °F 62% 29.86 in 10.0 mi South 10.4 mph - N/A   Overcast
1:15 PM 48.2 °F - 35.6 °F 62% 29.85 in 10.0 mi South 10.4 mph 19.6 mph N/A   Overcast
1:35 PM 46.4 °F 40.7 °F 37.4 °F 71% 29.85 in 10.0 mi South 12.7 mph 17.3 mph N/A   Overcast
1:55 PM 46.4 °F 39.8 °F 37.4 °F 71% 29.85 in 10.0 mi SSW 16.1 mph - N/A   Overcast
2:15 PM 46.4 °F 40.4 °F 37.4 °F 71% 29.85 in 10.0 mi SW 13.8 mph - N/A   Overcast
2:35 PM 46.4 °F 39.8 °F 37.4 °F 71% 29.85 in 10.0 mi SSW 16.1 mph - N/A   Overcast
2:55 PM 46.4 °F 40.7 °F 37.4 °F 71% 29.84 in 10.0 mi SSW 12.7 mph - N/A   Overcast
3:15 PM 46.4 °F 40.1 °F 37.4 °F 71% 29.83 in 10.0 mi South 15.0 mph 19.6 mph N/A   Overcast
3:35 PM 46.4 °F 40.4 °F 37.4 °F 71% 29.83 in 10.0 mi SSW 13.8 mph - N/A   Overcast
3:55 PM 44.6 °F 39.7 °F 39.2 °F 81% 29.83 in 10.0 mi South 9.2 mph - N/A   Overcast
4:15 PM 44.6 °F 39.2 °F 37.4 °F 76% 29.83 in 10.0 mi South 10.4 mph - 0.01 in   Overcast
4:35 PM 44.6 °F 39.7 °F 37.4 °F 76% 29.83 in 10.0 mi SSW 9.2 mph - 0.03 in   Overcast
4:55 PM 44.6 °F 39.7 °F 39.2 °F 81% 29.82 in 10.0 mi South 9.2 mph - 0.04 in   Overcast
5:15 PM 44.6 °F 38.8 °F 39.2 °F 81% 29.81 in 10.0 mi South 11.5 mph - N/A   Overcast
5:35 PM 44.6 °F 39.7 °F 39.2 °F 81% 29.81 in 10.0 mi South 9.2 mph - N/A   Overcast
5:55 PM 42.8 °F 38.6 °F 39.2 °F 87% 29.81 in 9.0 mi WSW 6.9 mph - 0.01 in   Overcast
6:15 PM 42.8 °F 40.1 °F 39.2 °F 87% 29.81 in 10.0 mi WSW 4.6 mph - N/A   Overcast
6:35 PM 42.8 °F 39.3 °F 39.2 °F 87% 29.81 in 10.0 mi South 5.8 mph - 0.01 in   Overcast
6:55 PM 42.8 °F 37.5 °F 37.4 °F 81% 29.80 in 7.0 mi South 9.2 mph - 0.02 in   Overcast
7:15 PM 42.8 °F 37.5 °F 37.4 °F 81% 29.81 in 7.0 mi South 9.2 mph - 0.02 in   Overcast
7:35 PM 42.8 °F 38.0 °F 37.4 °F 81% 29.81 in 10.0 mi South 8.1 mph - 0.03 in   Overcast
7:55 PM 42.8 °F 38.0 °F 39.2 °F 87% 29.80 in 10.0 mi SSE 8.1 mph - 0.04 in   Overcast
8:15 PM 42.8 °F 38.6 °F 37.4 °F 81% 29.80 in 9.0 mi SSE 6.9 mph - 0.02 in   Overcast
8:35 PM 42.8 °F 37.5 °F 37.4 °F 81% 29.81 in 10.0 mi South 9.2 mph - 0.04 in   Overcast
8:55 PM 42.8 °F 38.0 °F 39.2 °F 87% 29.80 in 10.0 mi SSE 8.1 mph - 0.04 in   Overcast
9:15 PM 42.8 °F 37.5 °F 39.2 °F 87% 29.78 in 10.0 mi SSE 9.2 mph - 0.01 in   Overcast
9:35 PM 42.8 °F 37.5 °F 39.2 °F 87% 29.78 in 10.0 mi South 9.2 mph - 0.01 in   Overcast
9:55 PM 42.8 °F 36.6 °F 39.2 °F 87% 29.78 in 10.0 mi South 11.5 mph - 0.01 in   Overcast
10:15 PM 42.8 °F 37.5 °F 39.2 °F 87% 29.77 in 10.0 mi South 9.2 mph - N/A   Overcast
10:35 PM 42.8 °F 36.6 °F 39.2 °F 87% 29.77 in 10.0 mi South 11.5 mph - 0.01 in   Overcast
10:55 PM 42.8 °F 36.6 °F 39.2 °F 87% 29.77 in 10.0 mi SSE 11.5 mph - 0.01 in   Overcast
11:15 PM 42.8 °F 36.2 °F 39.2 °F 87% 29.77 in 10.0 mi South 12.7 mph - N/A   Overcast
11:35 PM 42.8 °F 36.6 °F 39.2 °F 87% 29.76 in 10.0 mi South 11.5 mph - N/A   Overcast
11:55 PM 42.8 °F 36.2 °F 39.2 °F 87% 29.76 in 10.0 mi South 12.7 mph - N/A   Overcast